Theta_e
333 335 335 335 334 333 334 334 333 333 333 333 338 338 337 339 342 341 349 351 352 356 359 362 362 361 360 360 361 360 361 360 359 359 359 357 345 340 344 354 355 354 353 354
333 334 334 334 332 332 333 334 333 333 333 333 333 333 333 340 340 344 346 348 351 354 356 354 355 360 363 361 359 356 352 360 364 360 354 353 354 351 350 350 351 350 350 350
334 335 333 332 332 333 334 334 334 333 334 335 334 334 335 339 339 345 346 347 349 351 352 355 355 355 356 356 358 359 363 366 363 365 363 357 354 356 356 354 354 351 349 349
333 336 337 335 335 335 335 335 334 334 334 333 333 334 334 337 337 342 345 348 348 349 352 352 353 352 351 353 358 359 359 364 351 365 362 363 357 347 340 338 336 332 334 328
335 337 336 336 336 336 334 335 334 333 333 333 333 333 336 338 340 343 345 346 347 349 351 352 352 352 352 353 353 356 354 357 361 360 359 348 345 348 339 340 334 325 324 325
337 337 338 336 336 335 335 335 334 333 334 332 333 335 342 342 342 342 342 342 343 346 347 345 346 348 351 353 352 352 351 352 353 354 357 356 352 351 346 338 335 328 324 325
336 336 336 336 335 334 335 338 335 334 334 335 339 342 341 340 340 340 340 339 339 340 341 340 340 341 343 347 352 353 353 353 351 352 353 348 345 349 344 335 326 324 325 328
336 338 336 336 335 335 337 334 334 335 334 335 338 339 339 339 338 337 337 336 335 335 336 336 336 336 337 338 337 336 339 343 343 336 337 343 349 343 332 327 327 328 328 329
336 339 339 335 334 334 335 332 332 334 334 335 336 335 337 337 336 335 334 334 334 334 334 334 334 334 335 334 331 328 324 321 321 322 328 332 340 343 338 333 335 333 341 341
335 334 332 332 333 333 332 331 330 333 335 336 336 335 335 335 334 334 334 333 333 333 333 333 333 334 334 335 335 336 336 335 332 328 323 321 327 342 353 348 345 337 333 339
334 333 331 331 333 333 332 332 332 334 334 334 333 333 332 332 333 334 333 334 333 334 334 334 334 333 332 332 333 334 334 334 334 336 336 334 332 329 329 342 350 347 344 343
335 333 334 333 333 333 332 332 333 333 332 333 333 333 334 333 333 333 333 333 333 333 333 333 332 332 331 330 330 330 331 332 333 335 335 336 336 336 336 336 334 335 344 345
332 331 331 331 332 332 332 332 333 333 332 333 333 332 332 331 331 331 332 333 333 333 332 330 329 329 329 329 328 328 328 328 328 331 333 336 336 335 333 333 331 331 331 335
331 332 332 331 331 329 330 330 330 332 331 333 332 330 329 330 332 332 331 330 328 326 326 327 328 329 329 328 328 327 328 330 330 328 329 331 330 333 335 332 331 331 333 333
331 331 330 330 329 331 331 330 331 329 329 330 330 331 332 330 329 327 326 325 326 327 328 329 329 330 330 331 330 329 327 328 329 330 329 329 332 334 334 335 334 335 335 334
329 330 330 329 328 329 330 329 330 330 331 332 330 329 327 326 325 327 328 328 330 330 329 329 328 328 328 328 328 327 328 328 327 328 328 329 329 327 333 333 334 334 334 336
328 327 326 328 330 330 332 332 332 330 329 328 325 324 326 327 328 329 330 328 327 327 324 324 323 324 326 327 327 327 327 329 330 330 330 329 329 329 328 330 333 332 334 334
330 332 334 334 334 333 331 329 328 326 324 324 326 328 329 329 329 328 328 326 326 324 324 324 326 329 329 328 328 329 329 329 329 329 329 328 329 329 330 332 332 331 333 333
331 334 333 330 328 327 325 324 324 325 326 328 329 329 330 329 328 327 326 328 328 329 328 328 329 329 328 327 326 325 325 324 324 325 327 328 329 329 328 330 331 330 330 331
332 331 329 327 325 324 324 325 325 325 326 326 326 327 329 329 327 327 329 329 329 329 329 329 326 326 324 322 321 321 321 319 319 320 320 320 321 322 324 326 329 330 329 330
330 329 328 326 324 324 324 324 324 324 325 325 325 326 328 330 326 328 329 329 329 328 326 326 324 321 318 321 320 319 316 314 313 313 313 314 316 317 317 320 325 330 328 329
330 330 327 325 325 325 325 325 325 325 326 326 327 328 328 329 329 329 328 327 329 327 321 323 321 318 320 320 316 313 313 313 313 313 312 312 311 312 314 316 318 321 324 326
329 327 326 326 326 325 325 326 327 326 325 328 329 329 329 329 328 328 328 328 328 322 322 322 318 320 321 319 312 313 313 315 317 319 318 318 315 312 313 315 316 318 322 326
327 326 326 326 325 324 326 325 326 328 328 329 328 328 328 330 329 329 328 327 322 322 321 319 320 320 319 316 314 313 315 319 322 320 319 318 314 312 314 315 317 320 326 328
328 327 326 324 324 324 326 327 326 327 327 327 328 327 327 327 328 328 328 322 320 320 318 314 320 320 319 312 311 312 315 317 322 323 320 320 319 319 319 319 320 327 327 326
327 323 322 322 324 326 325 327 327 327 326 327 326 326 325 325 327 327 321 317 320 316 313 313 319 320 319 316 310 312 314 317 319 321 321 322 322 323 325 326 326 326 327 327
321 321 323 323 323 324 326 325 326 326 326 326 325 324 326 324 325 325 318 318 316 313 310 311 316 318 318 318 314 310 312 314 317 320 323 325 326 327 327 326 326 327 326 324
Wind_Speed
14 6 5 11 11 11 8 6 4 11 7 6 11 8 6 6 7 11 8 6 2 6 5 5 5 5 8 9 8 8 8 9 14 18 19 18 14 14 10 13 15 17 15 17
13 9 7 9 6 6 7 6 5 6 4 4 12 8 6 8 5 6 6 3 4 3 4 7 7 7 8 8 6 5 8 12 10 15 11 12 16 17 19 23 22 16 20 22
13 10 6 10 10 10 9 10 7 6 4 7 1 2 2 4 3 3 4 4 4 6 7 9 7 8 8 7 4 4 6 5 9 15 16 16 18 15 18 13 18 17 21 22
12 9 13 10 7 6 9 8 9 5 7 5 3 4 5 8 5 4 1 1 2 5 6 5 7 8 8 4 3 3 3 5 6 10 16 15 14 11 11 9 7 6 10 14
12 10 13 14 6 6 6 9 6 5 7 13 12 5 6 10 6 8 6 3 1 5 2 2 4 5 6 7 8 4 3 3 5 4 7 8 11 18 14 10 8 6 8 8
9 13 15 8 13 10 6 2 5 7 12 13 9 6 8 12 10 9 7 5 3 2 4 4 4 3 3 3 6 6 7 7 8 10 9 12 13 13 14 12 14 15 14 12
10 9 10 9 13 9 2 2 9 9 9 13 8 12 14 11 7 6 5 4 3 2 1 2 4 4 2 5 6 9 11 14 15 13 13 16 18 18 18 19 16 17 17 15
11 11 12 8 4 1 7 3 6 7 6 4 5 7 8 7 6 4 4 2 1 1 3 4 6 8 9 11 13 16 19 21 23 22 21 19 18 21 23 24 24 23 21 20
7 1 10 7 6 6 4 5 4 3 8 5 3 6 7 4 4 3 3 2 4 5 7 8 9 12 16 19 21 23 24 25 25 27 27 28 26 28 31 31 30 30 26 24
2 4 6 9 1 3 6 7 7 5 6 3 7 5 4 6 4 3 6 8 9 10 11 12 14 15 18 20 20 21 22 24 26 28 30 32 33 32 28 32 33 35 36 34
3 7 12 8 5 7 7 6 7 5 6 5 5 5 6 6 7 9 10 12 13 14 15 17 18 20 20 20 20 22 23 26 27 27 28 29 30 32 34 37 31 35 36 35
5 1 3 7 4 1 8 10 9 10 10 8 8 8 8 9 11 12 14 16 18 20 21 22 22 23 23 24 23 24 25 25 26 27 27 27 28 28 27 29 32 36 39 39
10 8 8 4 8 11 9 9 14 14 12 14 13 12 13 14 15 17 17 18 20 20 22 26 27 27 27 25 26 27 30 31 32 31 30 30 29 32 35 32 35 39 37 35
6 7 6 9 11 13 10 13 12 10 14 8 11 13 16 18 17 17 18 19 22 25 27 28 28 29 29 29 29 30 30 29 30 34 35 35 37 37 33 36 37 36 32 31
8 9 13 10 11 8 7 7 10 13 13 13 14 15 13 16 19 23 25 26 25 26 28 29 29 29 26 25 27 32 38 38 35 32 34 36 35 34 36 36 34 30 27 28
14 10 10 12 14 8 12 11 11 12 10 9 13 16 18 21 22 23 25 26 25 24 28 32 35 36 34 34 36 38 37 40 39 39 39 39 38 38 35 34 34 34 33 33
10 14 12 8 11 10 8 8 5 9 11 14 16 18 19 21 23 24 22 24 30 33 36 33 33 23 21 23 27 32 34 35 33 35 36 36 36 38 41 41 36 33 33 34
6 3 3 4 5 3 4 6 8 11 14 16 17 18 19 19 19 24 29 29 30 30 28 25 23 26 27 30 31 32 35 38 40 42 44 44 43 44 40 36 35 39 36 33
8 4 2 1 3 4 6 9 11 13 14 15 16 17 17 20 19 24 25 25 27 27 25 23 25 30 29 27 29 34 40 44 47 47 46 46 44 42 41 41 41 43 43 38
6 5 5 4 5 7 9 10 12 14 14 15 18 19 21 19 21 23 24 25 24 24 24 21 21 22 26 32 39 45 49 48 49 48 48 50 53 53 47 43 43 41 37 37
9 5 5 6 7 9 11 12 15 16 16 18 21 20 23 22 22 21 22 20 22 19 20 14 17 24 42 49 51 47 41 38 40 42 43 43 41 40 42 38 40 34 38 31
3 4 5 8 10 13 14 15 17 19 19 21 22 20 23 20 21 21 18 19 18 15 19 14 24 37 44 48 42 37 37 37 38 39 40 40 40 38 34 34 32 34 39 42
3 5 7 10 13 14 16 16 14 19 19 15 17 19 19 19 21 17 19 19 11 14 16 13 28 38 43 48 36 34 32 31 30 31 32 31 29 27 23 25 24 24 25 24
4 6 10 12 14 15 14 22 14 13 15 15 16 15 17 18 16 12 15 13 8 12 13 20 29 38 43 44 35 30 27 24 27 23 18 7 4 6 9 12 15 14 22 20
7 10 13 13 13 15 9 10 14 13 14 14 10 13 14 17 14 12 7 3 7 12 13 19 29 37 48 39 30 26 23 19 16 15 14 14 12 7 2 7 12 26 21 18
10 11 12 12 13 12 12 12 14 14 15 14 14 16 17 13 10 2 0 2 7 11 14 19 23 30 39 44 31 24 23 19 16 13 14 16 17 19 21 15 13 17 22 21
10 10 9 13 14 13 13 15 15 16 16 15 16 15 13 13 5 4 2 2 8 13 13 15 20 25 34 40 39 27 25 23 21 21 21 20 19 19 19 20 21 22 23 23
Wind_Direction
284 127 151 172 195 200 208 289 301 347 356 47 105 89 61 52 28 318 118 125 128 110 140 179 179 193 165 190 189 198 201 214 224 221 230 241 248 226 250 270 266 260 265 269
295 275 165 242 229 244 254 241 265 267 292 299 98 86 23 80 31 339 1 20 167 195 187 186 187 176 185 182 207 227 232 213 229 252 234 237 241 248 257 262 269 265 266 269
249 265 221 237 250 259 259 268 280 264 239 113 137 159 76 79 1 108 338 345 336 196 194 193 196 195 196 195 190 211 222 234 250 226 241 240 231 242 255 258 268 269 270 273
255 235 244 252 220 55 6 347 332 333 320 300 268 134 250 160 207 109 149 340 41 15 101 163 220 211 193 200 226 256 278 270 289 214 217 228 241 245 252 248 278 287 298 305
247 232 248 268 198 233 226 250 286 315 307 301 296 137 172 146 135 145 141 143 81 55 57 86 93 171 232 250 265 263 268 270 302 279 248 240 255 258 264 277 238 237 263 296
236 263 261 270 75 67 12 200 350 317 359 278 262 270 118 124 139 136 134 120 100 103 80 26 80 35 242 265 271 267 279 267 251 249 241 274 282 279 266 257 256 262 267 268
226 248 260 26 88 99 238 46 2 8 355 351 50 86 113 126 127 139 136 125 105 105 107 17 338 329 316 276 241 247 249 252 252 255 266 263 254 252 256 260 254 250 254 260
259 271 240 17 72 310 67 44 28 360 326 313 99 122 140 142 152 164 158 144 103 247 264 290 294 296 291 284 271 269 268 266 272 276 271 264 268 267 260 260 261 257 255 259
240 126 97 79 35 59 24 343 341 295 303 201 249 221 178 172 195 201 221 277 283 284 283 284 277 275 273 275 278 279 277 275 272 270 267 263 264 260 261 264 259 260 262 263
349 41 23 19 67 348 328 314 297 248 266 196 251 252 205 230 235 263 283 289 291 292 286 282 280 274 270 276 280 282 280 281 284 279 273 269 262 255 263 262 254 259 261 265
307 313 302 275 252 275 294 283 283 260 237 246 257 252 260 264 277 281 286 291 294 291 289 284 285 288 290 289 284 282 282 280 280 279 279 278 277 273 267 253 257 256 251 252
228 269 50 320 352 191 255 265 255 242 258 236 239 260 270 275 279 285 288 290 290 289 290 292 293 290 286 284 286 285 288 288 286 284 282 279 276 276 275 276 271 257 249 248
320 275 301 275 247 267 269 278 257 252 247 253 263 269 273 276 282 284 285 290 291 291 290 290 289 287 289 288 289 288 287 286 283 281 282 279 278 275 270 273 267 264 264 260
288 311 299 280 282 288 274 257 268 262 259 270 282 280 278 279 287 297 300 299 296 296 294 292 291 287 287 287 287 287 287 283 283 285 282 277 274 268 274 273 271 270 267 268
263 259 263 258 269 274 296 261 272 272 272 272 271 278 294 306 305 301 300 300 299 296 296 294 291 290 290 287 283 283 286 283 281 280 279 277 277 269 272 274 274 269 269 264
273 263 250 251 260 246 260 266 261 266 280 310 311 308 303 299 297 297 298 299 301 299 294 295 293 290 291 290 287 283 284 281 280 281 277 273 272 268 268 271 274 274 270 270
259 254 236 234 256 256 246 266 316 308 308 302 297 295 295 296 296 298 298 302 300 294 297 299 304 315 312 303 294 287 284 284 281 277 273 272 269 266 266 266 260 267 272 267
225 248 35 128 72 27 329 311 301 294 290 291 292 294 293 293 301 308 305 306 304 308 304 307 311 305 297 295 293 289 285 282 280 277 274 272 268 264 263 263 263 262 261 267
215 186 199 324 335 322 303 296 292 290 291 292 293 294 298 295 301 303 305 305 306 307 310 304 297 302 313 313 307 299 295 291 288 285 279 275 271 268 268 262 259 260 260 257
172 172 197 243 276 287 289 292 293 292 293 294 299 298 300 294 299 301 303 304 310 309 310 318 329 327 313 310 307 302 297 289 283 279 277 274 272 269 266 263 259 257 253 255
184 201 247 268 283 292 294 296 296 294 296 297 299 295 298 292 301 293 303 307 315 324 334 339 307 320 328 325 316 308 307 300 293 287 282 277 270 265 268 260 248 243 243 250
213 248 280 289 295 297 300 300 299 299 300 301 296 292 299 291 297 296 298 307 320 325 332 323 318 330 330 337 333 321 313 309 304 298 290 280 272 267 261 258 254 252 247 253
280 283 289 296 301 301 305 303 304 306 299 297 300 302 302 299 298 298 296 306 320 334 349 326 334 338 337 341 336 331 329 324 321 317 306 290 278 270 253 250 252 246 224 229
286 296 299 303 302 301 303 309 304 302 306 303 306 305 308 310 307 288 302 310 335 7 360 330 348 351 350 350 341 341 341 341 347 352 354 1 295 237 228 236 241 206 207 205
302 305 306 300 304 306 311 312 307 301 307 308 309 318 316 311 310 302 305 322 357 3 337 349 5 9 6 359 355 358 3 1 355 3 31 51 64 71 126 210 205 159 170 177
303 306 306 309 315 310 309 305 303 307 304 300 305 311 320 312 313 297 337 351 6 345 347 5 8 13 9 16 9 15 24 29 46 51 67 87 101 119 127 135 145 164 184 187
313 320 319 319 309 308 309 302 302 301 301 298 297 300 299 309 272 220 202 302 13 352 354 10 8 20 27 28 25 31 44 52 59 72 82 88 95 104 115 124 128 138 151 154